Location: ???????
(60.4260°N, 46.9069°E)
Time: 05:42:22
(UTC+00:00)

Cosmos 1862 Rocket - Pass Details

Date: 30 March 2020
Orbit: 603 x 635 km, 82.5° (Epoch: 05 June)

Event Time Altitude Azimuth Distance (km) Brightness Sun altitude
Exits shadow 00:00:47 13° 172° (S) 1,775 5.6 -16.5°
Maximum altitude 00:04:33 55° 97° (E) 750 4.2 -16.1°
Drops below altitude 10° 00:08:54 10° 20° (NNE) 2,011 7.1 -15.7°
Sets 00:11:11 0° 16° (NNE) 2,928 8.0 -15.5°
